Simultaneous Nadir Overpasses (SNOs) Predictions

Prediction of SNOs between GOES-16 and AQUA Satellite Orbit:

Table of predicted SNOs for the next 14.0 days since TLE Epoch: 9/7/2024
Index Date Time (GOES-16) GOES-16 Lat,Lon AQUA Lat,Lon Distance(km) Time Diff (sec)
1 09/08/2024 19:02:40 -0.05, -75.20 0.79, -71.26 448.53 80
2 09/09/2024 07:19:54 0.05, -75.21 0.25, -76.07 99.04 80
3 09/11/2024 07:05:07 0.04, -75.21 -0.69, -71.81 386.89 80
4 09/11/2024 19:22:29 -0.04, -75.21 -0.35, -76.65 164.34 80
5 09/13/2024 19:07:39 -0.03, -75.22 0.57, -72.38 323.01 80
6 09/14/2024 07:24:52 0.02, -75.22 0.44, -77.19 223.73 80
7 09/16/2024 07:09:59 0.02, -75.23 -0.46, -72.89 265.64 80
8 09/16/2024 19:27:20 -0.01, -75.24 -0.55, -77.74 284.64 80
9 09/18/2024 19:12:25 -0.01, -75.26 0.40, -73.44 207.16 80
10 09/19/2024 07:29:35 0.01, -75.27 0.64, -78.24 338.37 80
